Le nostre stazioni meteo in Italia

Pubblicità
Il mio iltempo24.it
Rodkallen, Svezia (2188): Temperatura & dewpoint: 03.04.2020 18:00:00 - 09.04.2020 18:00:00 (CEST)Rodkallen, Svezia (2188): velocità del vento & gusts: 03.04.2020 18:00:00 - 09.04.2020 18:00:00 (CEST)Rodkallen, Svezia (2188): direzione del vento: 03.04.2020 18:00:00 - 09.04.2020 18:00:00 (CEST)Rodkallen, Svezia (2188): visibility: 03.04.2020 18:00:00 - 09.04.2020 18:00:00 (CEST)Rodkallen, Svezia (2188): precipitazioni: 03.04.2020 18:00:00 - 09.04.2020 18:00:00 (CEST)
Data & Tempo tt [°C] td [°C] ff [km/h] ff [kn] fx [km/h] fx [kn] dd vv [km] rr [mm]
09.04.2020 18:00:00 2,2 -5,2 17 9 23 13 N 50 0,0
09.04.2020 17:00:00 2,1 -4,2 19 11 29 16 N 50 0,0
09.04.2020 16:00:00 3,0 -4,2 15 8 24 13 N 50 0,0
09.04.2020 15:00:00 3,4 -3,6 6 4 29 15 NNO 50 0,0
09.04.2020 14:00:00 2,9 -3,7 23 12 29 16 N 50 0,0
09.04.2020 13:00:00 3,5 -4,0 18 10 29 16 N 42 0,0
09.04.2020 12:00:00 3,4 -3,4 17 9 26 14 N 50 0,0
09.04.2020 11:00:00 4,0 -3,2 22 12 33 18 N 47 0,0
09.04.2020 10:00:00 3,7 -2,9 18 10 37 20 NNO 50 0,0
09.04.2020 09:00:00 3,2 -3,6 26 14 40 22 NO 50 0,0
09.04.2020 08:00:00 2,0 -3,7 24 13 33 18 NO 50 0,0
09.04.2020 07:00:00 1,0 -3,3 25 14 31 17 O 43 0,0
09.04.2020 06:00:00 0,9 -2,5 28 15 36 19 O 48 0,0
09.04.2020 05:00:00 1,0 -2,1 25 13 34 18 OSO 48 0,0
09.04.2020 04:00:00 1,0 -2,2 30 16 36 20 OSO 48 0,0
09.04.2020 03:00:00 1,3 -2,5 29 15 34 18 OSO 34 0,0
09.04.2020 02:00:00 1,6 -2,4 29 16 34 19 SO 38 0,0
09.04.2020 01:00:00 2,0 -2,5 32 17 37 20 SO 47 0,0
09.04.2020 00:00:00 2,1 -1,9 24 13 29 15 SO 50 0,0
08.04.2020 23:00:00 1,6 -1,2 18 10 21 12 SSO 50 0,0
08.04.2020 22:00:00 2,0 -1,1 22 12 25 13 SO 50 0,0
08.04.2020 21:00:00 2,3 -1,3 20 11 28 15 OSO 50 0,0
08.04.2020 20:00:00 3,0 -1,4 24 13 36 19 OSO 50 0,0
08.04.2020 19:00:00 4,0 -1,6 31 17 38 21 O 50 0,0
08.04.2020 18:00:00 5,0 -1,2 36 19 44 24 SO 50 0,0
08.04.2020 17:00:00 3,4 -0,7 39 21 49 26 SSO 32 0,0
08.04.2020 16:00:00 2,5 -1,1 36 20 49 27 S 26 0,0
08.04.2020 15:00:00 2,9 -1,6 42 23 49 26 S 28 0,0
08.04.2020 14:00:00 2,8 -1,6 39 21 46 25 SSO 31 0,0
08.04.2020 13:00:00 1,9 -0,7 33 18 45 25 S 26 0,0
08.04.2020 12:00:00 1,7 -0,7 35 19 50 27 S 22 0,0
08.04.2020 11:00:00 1,7 -0,8 38 20 50 27 S 17 0,0
08.04.2020 10:00:00 1,8 -1,3 29 16 39 21 S 23 0,0
08.04.2020 09:00:00 1,7 -1,2 36 19 44 24 S 21 0,0
08.04.2020 08:00:00 1,8 -1,3 21 11 39 21 S 24 0,0
08.04.2020 07:00:00 1,8 -1,3 35 19 42 23 SSO 26 0,0
08.04.2020 06:00:00 2,3 -1,1 35 19 45 24 SSO 24 0,0
08.04.2020 05:00:00 2,4 -1,3 37 20 42 23 SSO 24 0,0
08.04.2020 04:00:00 2,3 -1,1 32 18 37 20 SSO 26 0,0
08.04.2020 03:00:00 2,8 -1,2 30 16 38 21 SSO 31 0,0
08.04.2020 02:00:00 1,7 -1,4 28 15 42 23 SO 29 0,0
08.04.2020 01:00:00 1,5 -1,4 24 13 30 16 SSO 36 0,0
08.04.2020 00:00:00 1,7 -1,7 19 10 31 17 SSO 39 0,0
07.04.2020 23:00:00 2,7 -2,3 28 15 32 17 OSO 39 0,0
07.04.2020 22:00:00 2,7 -1,8 27 14 33 18 O 50 0,0
07.04.2020 21:00:00 3,6 -1,6 29 16 41 22 O 50 0,0
07.04.2020 20:00:00 4,6 -1,6 37 20 41 22 O 50 0,0
07.04.2020 19:00:00 4,7 -1,1 31 17 37 20 O 44 0,0
07.04.2020 18:00:00 4,2 -1,2 24 13 34 18 O 45 0,0
07.04.2020 17:00:00 2,6 0,3 23 12 26 14 OSO 44 0,0
07.04.2020 16:00:00 0,9 -0,6 16 8 18 10 S 14 0,0
07.04.2020 15:00:00 0,9 -0,1 14 8 19 11 SSO 21 0,0
07.04.2020 14:00:00 0,8 0,4 10 5 13 7 SSO 17 0,0
07.04.2020 13:00:00 0,1 -0,3 12 7 18 10 OSO 18 0,0
07.04.2020 12:00:00 -0,1 -0,4 16 8 19 10 OSO 26 0,0
07.04.2020 11:00:00 -0,3 -0,7 13 7 21 11 OSO 12 0,0
07.04.2020 10:00:00 -0,6 -0,9 19 10 26 14 O 11 0,0
07.04.2020 09:00:00 -0,9 -1,3 13 7 21 11 O 0,4 0,0
07.04.2020 08:00:00 -0,9 -1,3 11 6 19 11 OSO 0,3 0,0
07.04.2020 07:00:00 -0,5 -0,9 13 7 22 12 SO 0,3 0,0
07.04.2020 06:00:00 0,2 -0,4 19 11 23 12 SO 3,9 0,0
07.04.2020 05:00:00 0,5 -0,3 20 11 24 13 S 8 0,0
07.04.2020 04:00:00 0,8 -0,2 18 10 29 16 S 13 0,0
07.04.2020 03:00:00 0,7 -0,5 19 10 29 16 SSE 15 0,0
07.04.2020 02:00:00 0,9 -0,3 26 14 34 19 SSE 17 0,0
07.04.2020 01:00:00 1,2 -0,3 28 15 35 19 SSE 23 0,0
07.04.2020 00:00:00 1,2 -0,4 24 13 34 18 S 29 0,0
06.04.2020 23:00:00 1,2 -0,5 25 13 38 20 S 36 0,0
06.04.2020 22:00:00 1,6 -0,8 35 19 48 26 SSE 50 0,0
06.04.2020 21:00:00 1,5 -1,4 36 19 53 29 SE 50 0,0
06.04.2020 20:00:00 1,5 -1,2 30 16 39 21 SE 50 0,0
06.04.2020 19:00:00 0,9 -1,2 24 13 30 16 SE 50 0,0
06.04.2020 18:00:00 0,9 -1,0 21 12 27 14 SE 50 0,0
06.04.2020 17:00:00 0,6 -1,2 20 11 33 18 SE 48 0,0
06.04.2020 16:00:00 0,8 -1,1 26 14 33 18 SSE 48 0,0
06.04.2020 15:00:00 0,5 -1,4 24 13 30 16 SSE 43 0,0
06.04.2020 14:00:00 0,4 -1,5 24 13 30 16 SE 50 0,0
06.04.2020 13:00:00 0,2 -2,3 21 12 28 15 SE 50 0,0
06.04.2020 12:00:00 0,1 -2,9 22 12 30 16 SE 50 0,0
06.04.2020 11:00:00 0,1 -3,3 22 12 29 16 SE 50 0,0
06.04.2020 10:00:00 0,0 -3,5 22 12 29 16 SE 50 0,0
06.04.2020 09:00:00 0,0 -3,4 22 12 32 17 SE 50 0,0
06.04.2020 08:00:00 0,0 -3,2 24 13 30 16 SSE 50 0,0
06.04.2020 07:00:00 -0,1 -1,7 22 12 27 14 SSE 50 0,0
06.04.2020 06:00:00 0,0 -1,3 21 11 27 14 SSE 50 0,0
06.04.2020 05:00:00 -0,1 -1,5 19 11 26 14 S 50 0,0
06.04.2020 04:00:00 -0,1 -1,8 20 11 26 14 SSE 50 0,0
06.04.2020 03:00:00 -0,4 -1,5 20 11 24 13 SE 50 0,0
06.04.2020 02:00:00 -0,6 -1,9 13 7 16 9 ESE 50 0,0
06.04.2020 01:00:00 -0,4 -2,0 11 6 14 7 SSE 50 0,0
06.04.2020 00:00:00 -0,4 -2,6 9 5 16 9 S 50 0,0
05.04.2020 23:00:00 -0,3 -3,5 14 8 18 10 S 50 0,0
05.04.2020 22:00:00 -0,3 -3,7 15 8 19 10 S 50 0,0
05.04.2020 21:00:00 -0,4 -4,5 8 5 11 6 SSO 50 0,0
05.04.2020 20:00:00 -0,2 -5,0 9 5 10 6 SO 50 0,0
05.04.2020 19:00:00 0,2 -5,6 9 5 15 8 OSO 50 0,0
05.04.2020 18:00:00 0,7 -5,7 8 5 12 7 OSO 50 0,0
05.04.2020 17:00:00 1,1 -7,9 13 7 16 9 O 46 0,0
05.04.2020 16:00:00 1,0 -6,1 13 7 26 14 O 48 0,0
05.04.2020 15:00:00 0,8 -7,5 21 12 25 13 OSO 49 0,0
05.04.2020 14:00:00 0,4 -8,3 21 12 25 13 OSO 46 0,0
05.04.2020 13:00:00 0,2 -8,3 18 10 27 14 O 47 0,0
05.04.2020 12:00:00 -0,6 -8,8 21 11 27 15 OSO 44 0,0
05.04.2020 11:00:00 -1,3 -8,9 23 12 31 17 O 38 0,0
05.04.2020 10:00:00 -2,3 -10,6 25 13 35 19 O 49 0,0
05.04.2020 09:00:00 -3,2 -10,3 29 15 37 20 O 48 0,0
05.04.2020 08:00:00 -4,0 -10,4 27 15 35 19 O 50 0,0
05.04.2020 07:00:00 -4,3 -10,7 29 16 41 22 O 50 0,0
05.04.2020 06:00:00 -4,2 -9,8 37 20 45 24 ONO 50 0,0
05.04.2020 05:00:00 -4,1 -9,9 35 19 44 24 ONO 50 0,0
05.04.2020 04:00:00 -3,8 -9,6 35 19 45 24 ONO 50 0,0
05.04.2020 03:00:00 -3,3 -10,0 37 20 50 27 ONO 50 0,0
05.04.2020 02:00:00 -2,8 -9,1 37 20 50 27 ONO 50 0,0
05.04.2020 01:00:00 -2,1 -8,2 36 20 45 25 O 50 0,0
05.04.2020 00:00:00 -1,5 -8,7 37 20 45 24 O 50 0,0
04.04.2020 23:00:00 -1,0 -8,7 33 18 39 21 O 50 0,0
04.04.2020 22:00:00 -0,5 -8,9 30 16 35 19 O 50 0,0
04.04.2020 21:00:00 -0,2 -8,2 22 12 34 18 O 50 0,0
04.04.2020 20:00:00 0,3 -8,7 32 18 40 22 O 50 0,0
04.04.2020 19:00:00 0,9 -8,4 30 16 38 20 O 50 0,0
04.04.2020 18:00:00 0,6 -6,3 24 13 35 19 O 50 0,0
04.04.2020 17:00:00 1,0 -7,0 32 17 39 21 O 50 0,0
04.04.2020 16:00:00 1,0 -5,5 19 10 27 14 SSO 43 0,0
04.04.2020 15:00:00 0,6 -5,2 11 6 13 7 SO 50 0,0
04.04.2020 14:00:00 1,0 -6,6 5 3 10 5 O 48 0,0
04.04.2020 13:00:00 0,2 -7,3 9 5 20 11 O 50 0,0
04.04.2020 12:00:00 -0,7 -7,1 10 5 13 7 OSO 48 0,0
04.04.2020 11:00:00 -1,5 -7,5 10 5 18 10 O 44 0,0
04.04.2020 10:00:00 -2,3 -8,2 10 5 26 14 ONO 50 0,0
04.04.2020 09:00:00 -3,2 -8,1 21 11 28 15 O 50 0,0
04.04.2020 08:00:00 -3,1 -8,0 18 10 23 12 O 49 0,0
04.04.2020 07:00:00 -3,2 -7,7 19 10 23 13 O 50 0,0
04.04.2020 06:00:00 -3,4 -8,1 14 8 22 12 O 50 0,0
04.04.2020 05:00:00 -3,3 -8,3 14 8 23 12 O 50 0,0
04.04.2020 04:00:00 -3,0 -8,1 19 11 23 13 O 50 0,0
04.04.2020 03:00:00 -2,8 -8,3 23 12 26 14 O 50 0,0
04.04.2020 02:00:00 -2,2 -8,5 17 9 20 11 O 50 0,0
04.04.2020 01:00:00 -1,7 -7,6 13 7 16 9 O 50 0,0
04.04.2020 00:00:00 -0,9 -2,8 4 2 5 3 SO 50 0,0
03.04.2020 23:00:00 -1,1 -7,0 0 0 9 5 N 50 0,0
03.04.2020 22:00:00 -1,3 -10,6 8 4 13 7 ONO 50 0,0
03.04.2020 21:00:00 -1,2 -7,3 6 4 9 5 ONO 50 0,0
03.04.2020 20:00:00 -1,0 -9,9 8 5 29 15 NO 50 0,0
03.04.2020 19:00:00 0,0 -9,7 21 11 29 16 NO 50 0,0
03.04.2020 18:00:00 0,0 -6,8 14 7 23 12 NO 50 0,0

tt = Temperatura
td = dewpoint
ff = velocità del vento
fx = gusts
dd = direzione del vento
vv = visibility
rr = precipitazioni

Stazioni seguenti

WeatherPro
AMSI
MeteoEarth